Radiation Dose at Monitoring Post of Fukushima Daini Nuclear Power Station
Date,Time,MP-1(microSv/h),MP-2(microSv/h),MP-3(microSv/h),MP-4(microSv/h),MP-5(microSv/h),MP-6(microSv/h),MP-7(microSv/h),Wind Direction,Wind Velocity(m/s),Rain
2018/06/28,00:00,0.316,0.201,0.318,0.308,0.288,0.156,0.097,south-southwest,6.1,No
2018/06/28,00:10,0.317,0.199,0.319,0.312,0.291,0.156,0.097,south-southwest,2.3,No
2018/06/28,00:20,0.315,0.200,0.323,0.308,0.288,0.157,0.097,south,1.9,No
2018/06/28,00:30,0.316,0.200,0.320,0.309,0.286,0.157,0.097,west-southwest,1.3,No
2018/06/28,00:40,0.315,0.198,0.319,0.311,0.290,0.156,0.096,south-southwest,1.1,No
2018/06/28,00:50,0.313,0.201,0.321,0.309,0.292,0.156,0.098,-,CALM,No
2018/06/28,01:00,0.316,0.199,0.319,0.308,0.287,0.156,0.097,west-southwest,2.1,No
2018/06/28,01:10,0.316,0.199,0.321,0.312,0.290,0.154,0.097,west-southwest,0.8,No
2018/06/28,01:20,0.314,0.201,0.322,0.309,0.292,0.156,0.097,west-northwest,1.6,No
2018/06/28,01:30,0.318,0.200,0.320,0.307,0.288,0.156,0.097,north-northeast,1.6,No
2018/06/28,01:40,0.316,0.199,0.321,0.311,0.286,0.155,0.097,west-northwest,0.8,No
2018/06/28,01:50,0.313,0.201,0.322,0.311,0.291,0.156,0.097,northwest,2.9,No
2018/06/28,02:00,0.317,0.198,0.320,0.307,0.291,0.156,0.097,west,2.2,No
2018/06/28,02:10,0.316,0.200,0.319,0.309,0.287,0.156,0.096,west-southwest,2.7,No
2018/06/28,02:20,0.313,0.202,0.323,0.310,0.287,0.156,0.098,west-northwest,3.8,No
2018/06/28,02:30,0.316,0.199,0.322,0.309,0.293,0.157,0.097,northwest,3.5,No
2018/06/28,02:40,0.316,0.201,0.318,0.308,0.289,0.155,0.096,northwest,2.1,No
2018/06/28,02:50,0.314,0.201,0.321,0.311,0.288,0.156,0.097,south-southeast,1.1,No
2018/06/28,03:00,0.316,0.199,0.322,0.309,0.287,0.156,0.097,south,1.6,No
2018/06/28,03:10,0.317,0.201,0.319,0.306,0.292,0.156,0.096,south,2.7,No
2018/06/28,03:20,0.314,0.201,0.318,0.309,0.290,0.156,0.097,south,1.6,No
2018/06/28,03:30,0.316,0.199,0.323,0.313,0.287,0.158,0.097,south-southwest,2.0,No
2018/06/28,03:40,0.317,0.199,0.321,0.308,0.288,0.156,0.096,southwest,2.6,No
2018/06/28,03:50,0.315,0.201,0.318,0.307,0.291,0.157,0.097,west-southwest,2.2,No
2018/06/28,04:00,0.317,0.200,0.322,0.310,0.289,0.157,0.096,southwest,1.8,No
2018/06/28,04:10,0.318,0.200,0.321,0.310,0.286,0.155,0.097,south,3.2,No
2018/06/28,04:20,0.313,0.201,0.319,0.309,0.292,0.157,0.097,south-southwest,3.3,No
2018/06/28,04:30,0.318,0.199,0.323,0.309,0.291,0.156,0.097,south-southwest,4.1,No
2018/06/28,04:40,0.316,0.201,0.322,0.310,0.287,0.156,0.097,south-southwest,3.8,No
2018/06/28,04:50,0.314,0.199,0.319,0.308,0.288,0.156,0.097,south-southwest,3.5,No
2018/06/28,05:00,0.318,0.200,0.322,0.310,0.293,0.156,0.096,south-southwest,3.5,No
2018/06/28,05:10,0.316,0.201,0.322,0.311,0.290,0.156,0.097,south-southwest,3.6,No
2018/06/28,05:20,0.315,0.200,0.318,0.309,0.288,0.157,0.097,southwest,4.1,No
2018/06/28,05:30,0.318,0.198,0.321,0.308,0.288,0.156,0.097,south-southwest,3.2,No
2018/06/28,05:40,0.316,0.201,0.323,0.312,0.292,0.157,0.097,south-southwest,4.0,No
2018/06/28,05:50,0.313,0.201,0.321,0.311,0.290,0.156,0.096,south,4.8,No
2018/06/28,06:00,0.317,0.199,0.318,0.309,0.288,0.157,0.097,south,5.4,No
2018/06/28,06:10,0.316,0.200,0.324,0.308,0.286,0.156,0.097,south,6.9,No
2018/06/28,06:20,0.313,0.201,0.321,0.312,0.289,0.156,0.097,south,5.4,No
2018/06/28,06:30,0.316,0.200,0.319,0.309,0.292,0.157,0.097,south,5.4,No
2018/06/28,06:40,0.316,0.199,0.321,0.309,0.289,0.157,0.097,south,6.2,No
2018/06/28,06:50,0.315,0.201,0.322,0.312,0.287,0.155,0.096,south-southwest,6.0,No
2018/06/28,07:00,0.314,0.200,0.320,0.311,0.292,0.157,0.098,south-southwest,5.5,No
2018/06/28,07:10,0.317,0.199,0.318,0.308,0.291,0.157,0.098,south-southwest,4.4,No
2018/06/28,07:20,0.316,0.199,0.323,0.308,0.290,0.156,0.097,south-southwest,5.5,No
2018/06/28,07:30,0.313,0.200,0.323,0.310,0.288,0.156,0.096,south-southwest,5.8,Yes
2018/06/28,07:40,0.314,0.201,0.320,0.310,0.288,0.157,0.097,southwest,5.4,Yes
2018/06/28,07:50,0.319,0.200,0.318,0.309,0.289,0.157,0.097,southwest,4.7,No
2018/06/28,08:00,0.317,0.200,0.318,0.308,0.287,0.156,0.096,south-southwest,3.8,No
2018/06/28,08:10,0.315,0.199,0.317,0.307,0.288,0.155,0.096,south-southwest,4.3,No
2018/06/28,08:20,0.314,0.198,0.320,0.306,0.288,0.155,0.097,south-southwest,2.7,No
2018/06/28,08:30,0.313,0.200,0.323,0.310,0.288,0.156,0.098,south,0.9,No
2018/06/28,08:40,0.317,0.199,0.321,0.312,0.292,0.158,0.097,south,0.8,No
2018/06/28,08:50,0.318,0.201,0.319,0.311,0.293,0.156,0.096,south,0.9,No
2018/06/28,09:00,0.316,0.202,0.319,0.308,0.291,0.156,0.097,south-southeast,1.6,No
2018/06/28,09:10,0.313,0.200,0.322,0.308,0.289,0.157,0.097,southeast,1.7,No
2018/06/28,09:20,0.315,0.199,0.322,0.314,0.289,0.156,0.096,south-southeast,4.2,No
2018/06/28,09:30,0.318,0.200,0.321,0.310,0.293,0.156,0.097,south-southeast,3.5,Yes
2018/06/28,09:40,0.315,0.201,0.318,0.308,0.290,0.156,0.098,south,2.1,Yes
2018/06/28,09:50,0.314,0.200,0.324,0.313,0.290,0.157,0.098,south,3.0,Yes
2018/06/28,10:00,0.321,0.201,0.326,0.314,0.292,0.160,0.101,south-southeast,0.9,Yes
2018/06/28,10:10,0.320,0.206,0.323,0.313,0.296,0.161,0.102,-,-,Yes
2018/06/28,10:20,0.317,0.204,0.326,0.315,0.294,0.163,0.102,-,-,Yes
2018/06/28,10:30,0.321,0.203,0.326,0.314,0.291,0.161,0.102,-,-,Yes
2018/06/28,10:40,0.321,0.204,0.324,0.312,0.295,0.160,0.102,-,-,Yes
2018/06/28,10:50,0.316,0.204,0.324,0.314,0.293,0.161,0.101,-,-,Yes
2018/06/28,11:00,0.319,0.203,0.327,0.314,0.291,0.161,0.102,-,-,Yes
2018/06/28,11:10,0.321,0.201,0.323,0.310,0.288,0.158,0.100,-,-,Yes
2018/06/28,11:20,0.316,0.204,0.320,0.309,0.291,0.159,0.100,-,-,No
2018/06/28,11:30,0.315,0.202,0.323,0.313,0.292,0.158,0.099,-,-,No
2018/06/28,11:40,0.320,0.201,0.324,0.312,0.291,0.157,0.099,-,-,No
2018/06/28,11:50,0.317,0.201,0.321,0.308,0.289,0.158,0.099,-,-,Yes
2018/06/28,12:00,0.315,0.202,0.320,0.309,0.287,0.158,0.099,-,-,Yes
2018/06/28,12:10,0.317,0.201,0.325,0.311,0.292,0.158,0.098,-,-,Yes
2018/06/28,12:20,0.318,0.201,0.323,0.313,0.293,0.157,0.099,-,-,Yes
2018/06/28,12:30,0.316,0.204,0.320,0.311,0.291,0.159,0.100,-,-,Yes
2018/06/28,12:40,0.317,0.203,0.322,0.309,0.289,0.158,0.099,-,-,Yes
2018/06/28,12:50,0.321,0.201,0.324,0.314,0.290,0.157,0.099,-,-,Yes
2018/06/28,13:00,0.317,0.201,0.323,0.312,0.293,0.160,0.099,-,-,Yes
2018/06/28,13:10,0.315,0.203,0.320,0.310,0.293,0.159,0.101,-,-,Yes
2018/06/28,13:20,0.317,0.203,0.325,0.309,0.290,0.159,0.101,-,-,Yes
2018/06/28,13:30,0.318,0.201,0.325,0.313,0.289,0.160,0.100,-,-,Yes
2018/06/28,13:40,0.316,0.202,0.321,0.310,0.288,0.159,0.100,-,-,No
2018/06/28,13:50,0.314,0.203,0.318,0.309,0.292,0.158,0.100,-,-,No
2018/06/28,14:00,0.317,0.201,0.318,0.308,0.293,0.158,0.098,-,-,No
2018/06/28,14:10,0.318,0.200,0.325,0.308,0.291,0.157,0.098,-,-,No
2018/06/28,14:20,0.315,0.199,0.323,0.307,0.289,0.157,0.098,-,-,No
2018/06/28,14:30,0.314,0.199,0.321,0.311,0.288,0.158,0.098,-,-,No
2018/06/28,14:40,0.313,0.200,0.319,0.311,0.288,0.158,0.097,-,-,No
2018/06/28,14:50,0.314,0.198,0.317,0.309,0.288,0.156,0.097,-,-,No
2018/06/28,15:00,0.318,0.198,0.318,0.308,0.287,0.156,0.097,-,-,No
2018/06/28,15:10,0.316,0.198,0.318,0.307,0.288,0.156,0.097,-,-,No
2018/06/28,15:20,0.314,0.199,0.321,0.305,0.285,0.157,0.096,-,-,No
2018/06/28,15:30,0.313,0.201,0.322,0.307,0.286,0.156,0.097,-,-,No
2018/06/28,15:40,0.318,0.201,0.320,0.311,0.287,0.156,0.097,-,-,No
2018/06/28,15:50,0.317,0.199,0.319,0.308,0.293,0.156,0.096,-,-,No
2018/06/28,16:00,0.314,0.199,0.317,0.307,0.291,0.156,0.096,-,-,No
2018/06/28,16:10,0.314,0.198,0.320,0.305,0.289,0.156,0.097,-,-,No
2018/06/28,16:20,0.315,0.199,0.323,0.305,0.287,0.156,0.097,-,-,No
2018/06/28,16:30,0.318,0.201,0.320,0.309,0.288,0.155,0.096,-,-,No
2018/06/28,16:40,0.315,0.199,0.318,0.310,0.287,0.156,0.097,south-southeast,1.8,No
2018/06/28,16:50,0.312,0.199,0.317,0.310,0.286,0.156,0.097,south,2.2,No
2018/06/28,17:00,0.315,0.199,0.320,0.307,0.285,0.155,0.096,south-southeast,2.3,No
2018/06/28,17:10,0.317,0.200,0.322,0.305,0.291,0.156,0.096,south,4.5,No
2018/06/28,17:20,0.314,0.199,0.320,0.309,0.290,0.156,0.098,south,4.5,No
2018/06/28,17:30,0.311,0.198,0.318,0.310,0.289,0.156,0.096,south,2.5,Yes
2018/06/28,17:40,0.317,0.201,0.319,0.308,0.287,0.156,0.096,south,2.4,Yes
2018/06/28,17:50,0.315,0.200,0.323,0.306,0.286,0.155,0.097,south-southwest,1.7,No
2018/06/28,18:00,0.314,0.199,0.320,0.307,0.291,0.156,0.097,south-southwest,1.5,No
2018/06/28,18:10,0.314,0.199,0.318,0.311,0.291,0.156,0.096,west,1.2,No
2018/06/28,18:20,0.317,0.200,0.321,0.308,0.288,0.155,0.097,west,0.9,No
2018/06/28,18:30,0.314,0.199,0.322,0.306,0.286,0.156,0.098,-,CALM,No
2018/06/28,18:40,0.314,0.199,0.321,0.309,0.290,0.157,0.097,north-northwest,0.7,No
2018/06/28,18:50,0.318,0.200,0.317,0.311,0.291,0.156,0.097,north-northwest,0.6,No
2018/06/28,19:00,0.315,0.201,0.322,0.309,0.288,0.156,0.097,-,CALM,No
2018/06/28,19:10,0.313,0.199,0.322,0.307,0.287,0.156,0.097,south-southwest,1.6,No
2018/06/28,19:20,0.317,0.202,0.321,0.311,0.291,0.156,0.098,south-southwest,2.6,No
2018/06/28,19:30,0.317,0.201,0.319,0.310,0.291,0.157,0.097,south-southwest,3.2,No
2018/06/28,19:40,0.315,0.199,0.324,0.307,0.290,0.156,0.098,south-southwest,2.6,No
2018/06/28,19:50,0.318,0.201,0.322,0.309,0.290,0.157,0.098,south-southwest,2.5,No
2018/06/28,20:00,0.316,0.201,0.318,0.311,0.294,0.157,0.097,south,2.7,No
2018/06/28,20:10,0.314,0.200,0.321,0.308,0.291,0.157,0.097,south,2.6,No
2018/06/28,20:20,0.318,0.201,0.324,0.307,0.287,0.156,0.098,south-southwest,2.9,No
2018/06/28,20:30,0.317,0.199,0.321,0.311,0.291,0.157,0.097,south,2.0,No
2018/06/28,20:40,0.313,0.200,0.320,0.309,0.292,0.157,0.098,south-southwest,3.1,No
2018/06/28,20:50,0.318,0.201,0.324,0.309,0.288,0.156,0.098,south-southwest,3.1,No
2018/06/28,21:00,0.317,0.200,0.321,0.312,0.290,0.157,0.098,southwest,2.7,No
2018/06/28,21:10,0.314,0.201,0.320,0.310,0.291,0.156,0.098,south-southwest,2.6,No
2018/06/28,21:20,0.317,0.199,0.323,0.308,0.289,0.157,0.097,south,2.4,No
2018/06/28,21:30,0.315,0.201,0.321,0.310,0.288,0.157,0.098,south,1.9,No
2018/06/28,21:40,0.315,0.201,0.321,0.309,0.290,0.157,0.097,south,2.0,No
2018/06/28,21:50,0.318,0.200,0.324,0.308,0.287,0.157,0.098,south-southwest,0.8,No
2018/06/28,22:00,0.315,0.200,0.320,0.310,0.288,0.157,0.097,south-southwest,1.3,No
2018/06/28,22:10,0.316,0.201,0.320,0.309,0.292,0.157,0.097,south-southwest,2.0,No
2018/06/28,22:20,0.317,0.201,0.323,0.309,0.290,0.157,0.097,south-southwest,2.7,No
2018/06/28,22:30,0.313,0.200,0.319,0.310,0.289,0.156,0.097,south-southwest,3.1,No
2018/06/28,22:40,0.317,0.200,0.322,0.308,0.292,0.157,0.097,south-southwest,3.7,No
2018/06/28,22:50,0.315,0.202,0.322,0.312,0.289,0.156,0.097,south,3.5,No
2018/06/28,23:00,0.315,0.200,0.319,0.312,0.290,0.156,0.098,south,2.7,No
2018/06/28,23:10,0.318,0.202,0.323,0.308,0.291,0.157,0.097,south,1.8,No
2018/06/28,23:20,0.314,0.200,0.320,0.312,0.288,0.155,0.097,south,1.6,No
2018/06/28,23:30,0.317,0.199,0.320,0.310,0.292,0.157,0.097,south-southwest,1.3,No
2018/06/28,23:40,0.316,0.200,0.322,0.308,0.290,0.158,0.097,south,1.9,No
2018/06/28,23:50,0.314,0.200,0.319,0.312,0.286,0.156,0.097,south,2.4,No
